Blackpool, United Kingdom

8:09 AM BST on September 20, 2017 (GMT +0100)
Blackpool

Weather History for EGNH - January, 2013

Change the Weather History Date:

Tuesday, January 29, 2013

  Actual Average Record
Temperature  
Mean Temperature 46 °F -  
Max Temperature 51 °F 44 °F 51 °F (2002)
Min Temperature 42 °F 36 °F 21 °F (2011)
Degree Days  
Heating Degree Days 18    
Moisture  
Dew Point 45 °F    
Average Humidity 91    
Maximum Humidity 100    
Minimum Humidity 80    
Precipitation  
Precipitation 0.12 in - - ()
Sea Level Pressure  
Sea Level Pressure 29.37 in    
Wind  
Wind Speed 15 mph ()    
Max Wind Speed 32 mph    
Max Gust Speed -    
Visibility 5.8 miles    
Events Rain    
Averages and records for this station are not official NWS values.
T = Trace of Precipitation, MM = Missing Value Source: Averaged Metar Reports

Daily Weather History Graph

Daily Weather History Graph

Search for Another Location

Airport or City:

Trip Planner

Search our weather history database for the weather conditions in past years. The results will help you decide how hot, cold, wet, or windy it might be!

Date:

Astronomy

Jan. 29, 2013 Rise Set
Actual Time 8:03 AM GMT 4:48 PM GMT
Civil Twilight 7:24 AM GMT 5:27 PM GMT
Nautical Twilight 6:41 AM GMT 6:09 PM GMT
Astronomical Twilight 6:00 AM GMT 6:51 PM GMT
Moon 8:02 PM GMT (1/29) 8:23 AM GMT (1/29)
Length of Visible Light 10h 03m
Length of Day
8h 45m
Waning Gibbous, 95% of the Moon is Illuminated
Jan 29
Waning Gibbous
Feb 3
Last Quarter
Feb 10
New
Feb 17
First Quarter
Feb 25
Full

Hourly Weather History & Observations

Time (GMT) Temp. Windchill Dew Point Humidity Pressure Visibility Wind Dir Wind Speed Gust Speed Precip Events Conditions
2:50 AM 46 °F - 42 °F 80%  in - WSW 24.2 mph - -  
5:50 AM 45 °F - 41 °F 82%  in - SW 15.0 mph - -  
5:50 AM 44.6 °F 38.1 °F 42.8 °F 93% 29.50 in 5.0 mi SW 13.8 mph - N/A   Partly Cloudy
6:20 AM 44.6 °F 38.8 °F 41.0 °F 87% 29.50 in 5.0 mi SW 11.5 mph - N/A   Partly Cloudy
6:50 AM 44.6 °F 39.7 °F 41.0 °F 87% 29.50 in 6.2 mi SW 9.2 mph - N/A   Partly Cloudy
7:20 AM 44.6 °F 39.7 °F 41.0 °F 87% 29.50 in 6.2 mi SW 9.2 mph - N/A   Partly Cloudy
7:50 AM 44.6 °F 38.4 °F 41.0 °F 87% 29.47 in 5.0 mi SW 12.7 mph - N/A   Partly Cloudy
8:20 AM 42.8 °F 37.5 °F 41.0 °F 93% 29.47 in 5.0 mi SSW 9.2 mph - N/A   Partly Cloudy
8:50 AM 43 °F - 41 °F 88%  in - SSW 11.5 mph - -  
8:50 AM 42.8 °F 37.5 °F 41.0 °F 93% 29.44 in 5.6 mi SSW 9.2 mph - N/A   Partly Cloudy
9:20 AM 44.6 °F 39.2 °F 41.0 °F 87% 29.44 in 6.2 mi SSW 10.4 mph - N/A   Partly Cloudy
9:50 AM 46.4 °F 40.7 °F 42.8 °F 87% 29.44 in 6.2 mi South 12.7 mph - N/A   Partly Cloudy
10:20 AM 46.4 °F 41.1 °F 42.8 °F 87% 29.44 in 6.2 mi South 11.5 mph - N/A   Partly Cloudy
10:50 AM 48.2 °F - 42.8 °F 82% 29.42 in 6.2 mi SSE 12.7 mph - N/A Rain Light Rain Showers
11:20 AM 48.2 °F - 44.6 °F 87% 29.42 in 4.3 mi SSE 15.0 mph - N/A Rain Light Rain Showers
11:50 AM 47 °F - 45 °F 89%  in - SSE 15.0 mph - -  
11:50 AM 48.2 °F - 44.6 °F 87% 29.39 in 5.6 mi SSE 15.0 mph - N/A   Scattered Clouds
12:20 PM 48.2 °F - 46.4 °F 93% 29.39 in 6.2 mi SSE 13.8 mph - N/A Rain Light Rain Showers
12:50 PM 48.2 °F - 46.4 °F 93% 29.36 in 2.8 mi SSE 13.8 mph - N/A Rain Light Rain Showers
1:20 PM 50.0 °F - 48.2 °F 94% 29.33 in 5.6 mi South 18.4 mph - N/A Rain Light Rain Showers
1:50 PM 50.0 °F - 50.0 °F 100% 29.33 in 6.2 mi South 20.7 mph - N/A   Mostly Cloudy
2:20 PM 50.0 °F - 48.2 °F 94% 29.30 in 6.2 mi SSW 20.7 mph - N/A   Mostly Cloudy
2:50 PM 50 °F - 47 °F 88%  in - SSW 19.6 mph - -  
2:50 PM 50.0 °F - 48.2 °F 94% 29.30 in 6.2 mi SSW 17.3 mph - N/A   Mostly Cloudy
3:20 PM 50.0 °F - 48.2 °F 94% 29.27 in 6.2 mi SSW 18.4 mph - N/A Rain Rain
3:50 PM 50.0 °F - 48.2 °F 94% 29.27 in 6.2 mi SSW 23.0 mph - N/A Rain Light Rain
4:20 PM 50.0 °F - 48.2 °F 94% 29.24 in 6.2 mi SSW 20.7 mph - N/A Rain Light Rain
4:50 PM 51.8 °F - 48.2 °F 88% 29.24 in 6.2 mi SW 25.3 mph - N/A Rain Light Rain
5:20 PM 51.8 °F - 50.0 °F 94% 29.27 in 6.2 mi SW 28.8 mph - N/A Rain Rain
5:50 PM 50 °F - 49 °F 94%  in - SW 32.2 mph - -  
5:50 PM 50.0 °F - 50.0 °F 100% 29.24 in 6.2 mi SW 32.2 mph - N/A Rain Light Rain
6:50 PM 48.2 °F - 46.4 °F 93% 29.30 in 6.2 mi WSW 20.7 mph - N/A   Scattered Clouds
7:20 PM 48.2 °F - 46.4 °F 93% 29.30 in 6.2 mi WSW 21.9 mph - N/A   Scattered Clouds
8:20 PM 48.2 °F - 46.4 °F 93% 29.33 in 6.2 mi WSW 23.0 mph - N/A   Partly Cloudy
8:50 PM 47 °F - 44 °F 87%  in - WSW 27.6 mph - -  
8:50 PM 48.2 °F - 46.4 °F 93% 29.33 in 6.2 mi WSW 26.5 mph - N/A   Partly Cloudy
11:50 PM 46 °F - 45 °F 93%  in - WSW 25.3 mph - -